Location: Hodgeman County Ambulance
(38.0844°N, 99.8949°W)
Time: 14:40:30
(UTC+00:00)

H-2A R/B - Pass Details

Date: 27 October 2020
Orbit: 500 x 540 km, 97.3° (Epoch: 28 November)

Event Time Altitude Azimuth Distance (km) Brightness Sun altitude
Rises 12:03:33 0° 16° (NNE) 2,648 6.4 -11.9°
Reaches altitude 10° 12:05:41 10° 21° (NNE) 1,763 5.6 -11.4°
Maximum altitude 12:09:25 55° 100° (E) 637 3.6 -10.7°
Drops below altitude 10° 12:13:11 10° 179° (S) 1,772 5.5 -10.0°
Sets 12:15:19 0° 183° (S) 2,663 6.4 -9.6°
